| time (UTC) | temp F | wind direction | speed MPH | gust MPH | rain 1hr in | rain 24hr in | rain mn in | humidity % | barometer mb |
| 20260506043703 | 49 | 20 | 1.0 | 3.0 | 0.00 | 0.00 | 0.00 | 73 | 1015.5 |
| 20260506043203 | 49 | 66 | 2.0 | 13.0 | 0.00 | 0.00 | 0.00 | 73 | 1015.4 |
| 20260506040703 | 50 | 334 | 2.0 | 5.0 | 0.00 | 0.00 | 0.00 | 73 | 1015.2 |
| 20260506040203 | 50 | 357 | 3.0 | 8.0 | 0.00 | 0.00 | 0.00 | 73 | 1015.3 |
| 20260506033703 | 50 | 20 | 2.0 | 8.0 | 0.00 | 0.00 | 0.00 | 72 | 1015.5 |
| 20260506030703 | 50 | 29 | 3.0 | 5.0 | 0.00 | 0.00 | 0.00 | 70 | 1015.7 |
| 20260506030204 | 50 | 11 | 3.0 | 9.0 | 0.00 | 0.00 | 0.00 | 70 | 1015.7 |
| 20260506023204 | 50 | 80 | 3.0 | 9.0 | 0.00 | 0.00 | 0.00 | 73 | 1015.0 |
| 20260506020703 | 50 | 31 | 2.0 | 8.0 | 0.00 | 0.00 | 0.00 | 75 | 1014.6 |
| 20260506020203 | 50 | 334 | 3.0 | 10.0 | 0.00 | 0.00 | 0.00 | 76 | 1014.7 |
| 20260506013703 | 50 | 29 | 2.0 | 8.0 | 0.00 | 0.00 | 0.00 | 79 | 1013.9 |
| 20260506013203 | 50 | 113 | 2.0 | 9.0 | 0.00 | 0.00 | 0.00 | 80 | 1013.8 |
| 20260506010703 | 49 | 69 | 1.0 | 5.0 | 0.00 | 0.00 | 0.00 | 82 | 1013.5 |
| 20260506010203 | 49 | 71 | 3.0 | 9.0 | 0.00 | 0.00 | 0.00 | 82 | 1013.5 |
| 20260506003703 | 50 | 82 | 2.0 | 3.0 | 0.00 | 0.00 | 0.00 | 82 | 1013.2 |
| 20260506000704 | 50 | 78 | 2.0 | 3.0 | 0.00 | 0.00 | 0.00 | 79 | 1013.1 |
| 20260505233703 | 51 | 347 | 2.0 | 5.0 | 0.00 | 0.00 | 0.00 | 75 | 1012.8 |
| 20260505233204 | 51 | 328 | 3.0 | 12.0 | 0.00 | 0.00 | 0.00 | 75 | 1012.7 |
| 20260505230703 | 52 | 7 | 3.0 | 9.0 | 0.00 | 0.00 | 0.00 | 73 | 1012.5 |
| 20260505230203 | 52 | 19 | 3.0 | 16.0 | 0.00 | 0.00 | 0.00 | 73 | 1012.4 |
| 20260505223704 | 52 | 2 | 4.0 | 9.0 | 0.00 | 0.00 | 0.00 | 72 | 1012.1 |
| 20260505223204 | 53 | 43 | 6.0 | 22.0 | 0.00 | 0.00 | 0.00 | 72 | 1012.1 |
| 20260505220703 | 53 | 31 | 3.0 | 9.0 | 0.00 | 0.00 | 0.00 | 71 | 1011.7 |
| 20260505220204 | 53 | 20 | 2.0 | 13.0 | 0.00 | 0.00 | 0.00 | 70 | 1011.5 |
| 20260505213703 | 54 | 358 | 5.0 | 14.0 | 0.00 | 0.00 | 0.00 | 68 | 1011.4 |
| 20260505213203 | 54 | 15 | 4.0 | 12.0 | 0.00 | 0.00 | 0.00 | 68 | 1011.5 |
| 20260505210203 | 54 | 20 | 4.0 | 12.0 | 0.00 | 0.00 | 0.00 | 70 | 1011.1 |
| 20260505203703 | 54 | 27 | 4.0 | 16.0 | 0.00 | 0.00 | 0.00 | 70 | 1011.1 |
| 20260505203203 | 54 | 346 | 4.0 | 14.0 | 0.00 | 0.00 | 0.00 | 70 | 1011.0 |
| 20260505200704 | 54 | 296 | 2.0 | 10.0 | 0.00 | 0.00 | 0.00 | 71 | 1011.0 |
| 20260505193203 | 54 | 62 | 2.0 | 16.0 | 0.00 | 0.00 | 0.00 | 72 | 1011.4 |
| 20260505190204 | 55 | 350 | 4.0 | 12.0 | 0.00 | 0.00 | 0.00 | 71 | 1010.7 |
| 20260505183704 | 55 | 22 | 3.0 | 9.0 | 0.00 | 0.00 | 0.00 | 73 | 1010.4 |
| 20260505180203 | 55 | 334 | 4.0 | 17.0 | 0.00 | 0.00 | 0.00 | 77 | 1010.1 |
| 20260505173703 | 55 | 27 | 3.0 | 8.0 | 0.00 | 0.00 | 0.00 | 77 | 1009.9 |
| 20260505173203 | 55 | 33 | 5.0 | 17.0 | 0.00 | 0.00 | 0.00 | 77 | 1009.9 |
| 20260505170703 | 55 | 27 | 4.0 | 16.0 | 0.00 | 0.00 | 0.00 | 76 | 1009.6 |
| 20260505170203 | 55 | 355 | 5.0 | 14.0 | 0.00 | 0.00 | 0.00 | 77 | 1009.3 |
| 20260505163704 | 55 | 53 | 3.0 | 10.0 | 0.00 | 0.00 | 0.00 | 78 | 1008.9 |
| 20260505160703 | 56 | 17 | 3.0 | 12.0 | 0.00 | 0.00 | 0.00 | 79 | 1007.9 |
| 20260505160204 | 56 | 346 | 5.0 | 16.0 | 0.00 | 0.00 | 0.00 | 79 | 1007.9 |
| 20260505153203 | 56 | 22 | 5.0 | 14.0 | 0.00 | 0.00 | 0.00 | 80 | 1007.3 |
| 20260505150704 | 58 | 19 | 6.0 | 13.0 | 0.00 | 0.00 | 0.00 | 80 | 1007.1 |
| 20260505150204 | 58 | 351 | 6.0 | 23.0 | 0.00 | 0.00 | 0.00 | 79 | 1006.9 |
| 20260505140204 | 65 | 15 | 3.0 | 10.0 | 0.00 | 0.00 | 0.00 | 79 | 1005.4 |
| 20260505130204 | 66 | 118 | 1.0 | 9.0 | 0.00 | 0.00 | 0.00 | 81 | 1004.4 |
| 20260505123704 | 66 | 109 | 2.0 | 3.0 | 0.00 | 0.00 | 0.00 | 81 | 1004.3 |
| 20260505123204 | 66 | 95 | 4.0 | 13.0 | 0.00 | 0.00 | 0.00 | 81 | 1004.2 |
| 20260505120703 | 65 | 133 | 4.0 | 12.0 | 0.00 | 0.00 | 0.00 | 82 | 1003.7 |
| 20260505120204 | 65 | 108 | 4.0 | 12.0 | 0.00 | 0.00 | 0.00 | 82 | 1003.7 |
| 20260505113703 | 65 | 10 | 2.0 | 9.0 | 0.00 | 0.00 | 0.00 | 82 | 1003.5 |
| 20260505110704 | 65 | 48 | 3.0 | 5.0 | 0.00 | 0.00 | 0.00 | 82 | 1003.1 |
| 20260505110203 | 65 | 74 | 1.0 | 9.0 | 0.00 | 0.00 | 0.00 | 82 | 1003.3 |
| 20260505100704 | 66 | 116 | 1.0 | 3.0 | 0.00 | 0.00 | 0.00 | 82 | 1002.4 |
| 20260505093704 | 67 | 114 | 3.0 | 7.0 | 0.00 | 0.00 | 0.00 | 81 | 1001.7 |
| 20260505093203 | 67 | 122 | 5.0 | 12.0 | 0.00 | 0.00 | 0.00 | 81 | 1001.6 |
| 20260505090703 | 68 | 106 | 6.0 | 12.0 | 0.00 | 0.00 | 0.00 | 80 | 1001.7 |
| 20260505090204 | 68 | 105 | 3.0 | 10.0 | 0.00 | 0.00 | 0.00 | 80 | 1001.8 |
| 20260505083704 | 69 | 135 | 5.0 | 9.0 | 0.00 | 0.00 | 0.00 | 79 | 1001.9 |
| 20260505083203 | 69 | 92 | 4.0 | 10.0 | 0.00 | 0.00 | 0.00 | 79 | 1002.1 |
| 20260505080703 | 69 | 122 | 3.0 | 7.0 | 0.00 | 0.00 | 0.00 | 78 | 1002.1 |
| 20260505080204 | 70 | 96 | 2.0 | 8.0 | 0.00 | 0.00 | 0.00 | 78 | 1002.3 |
| 20260505073703 | 70 | 134 | 3.0 | 6.0 | 0.00 | 0.00 | 0.00 | 77 | 1002.3 |
| 20260505070703 | 71 | 160 | 3.0 | 7.0 | 0.00 | 0.00 | 0.00 | 75 | 1002.6 |
| 20260505070203 | 71 | 141 | 5.0 | 9.0 | 0.00 | 0.00 | 0.00 | 76 | 1002.7 |
| 20260505063704 | 72 | 89 | 1.0 | 3.0 | 0.00 | 0.00 | 0.00 | 74 | 1002.9 |
| 20260505063204 | 72 | 71 | 1.0 | 12.0 | 0.00 | 0.00 | 0.00 | 74 | 1002.8 |
| 20260505060704 | 72 | 179 | 3.0 | 9.0 | 0.00 | 0.00 | 0.00 | 73 | 1002.5 |
| 20260505060204 | 72 | 175 | 4.0 | 14.0 | 0.00 | 0.00 | 0.00 | 73 | 1002.5 |
| 20260505053703 | 73 | 170 | 6.0 | 18.0 | 0.00 | 0.00 | 0.00 | 73 | 1002.5 |
| 20260505050704 | 73 | 163 | 6.0 | 12.0 | 0.00 | 0.00 | 0.00 | 72 | 1002.7 |
| 20260505050204 | 73 | 168 | 4.0 | 13.0 | 0.00 | 0.00 | 0.00 | 72 | 1002.8 |